Location: Peebles
(55.6412°N, 3.1714°W)
Time: 14:56:41
(UTC+01:00)

DMSP B5D2-2 - Pass Details

Date: 26 September 2021
Orbit: 790 x 805 km, 98.3° (Epoch: 17 October)

Event Time Altitude Azimuth Distance (km) Brightness Sun altitude
Rises 19:46:39 0° 18° (NNE) 3,335 7.2 -7.3°
Reaches altitude 10° 19:49:08 10° 26° (NNE) 2,400 6.4 -7.7°
Maximum altitude 19:54:10 43° 97° (E) 1,129 4.4 -8.4°
Drops below altitude 10° 19:59:10 10° 169° (SSE) 2,380 6.3 -9.1°
Sets 20:01:37 0° 176° (S) 3,304 7.1 -9.4°
